GEFSSGP_500_meanwind_006.txt.gz
Wind_Speed
9 9 11 13 15 18 19 18 18 18 18 19 21 23 24 24 22 22 22 21 21 21 21 22 22 23 23 23 23 23 24 24 23 23 22 21 20 18 18 18 19 20 20 20 20 19 18 18 18
8 8 11 13 15 17 18 19 17 16 16 16 19 22 22 22 23 23 22 21 21 21 22 23 23 24 24 23 23 24 24 24 23 22 22 22 21 20 19 20 21 22 22 22 22 22 21 21 20
4 6 8 11 13 14 16 14 13 13 14 14 17 21 22 21 21 23 24 23 24 25 25 25 26 26 26 25 25 25 25 24 23 22 22 23 23 22 22 23 24 24 25 25 24 23 23 23 23
1 2 5 7 9 11 11 8 11 11 10 11 14 17 19 20 20 22 24 24 24 25 27 27 27 27 27 27 26 26 26 26 25 25 25 25 26 25 25 25 25 25 25 25 25 24 24 24 24
3 2 4 4 6 9 6 6 8 7 6 8 13 16 18 20 20 20 22 23 23 23 25 27 27 27 28 28 28 28 28 28 28 28 28 28 28 27 27 27 26 26 25 25 25 25 25 24 24
3 3 4 4 5 6 4 5 8 9 8 10 15 19 21 22 21 20 22 24 25 26 26 28 29 29 30 31 32 32 32 32 32 32 32 31 31 30 29 29 28 28 28 27 27 27 26 26 27
4 5 6 8 9 6 5 6 9 11 13 14 18 22 23 24 23 23 25 28 30 31 31 31 32 33 34 34 35 36 36 36 35 34 33 33 33 32 31 30 29 29 30 30 30 30 29 30 30
7 8 8 10 11 10 10 11 13 15 19 21 22 24 26 28 28 28 30 33 35 35 34 34 34 34 34 34 35 36 36 36 35 35 34 34 33 32 31 30 29 29 30 30 30 30 30 30 29
7 8 8 9 12 13 14 16 17 19 22 24 25 26 28 29 30 31 32 34 35 35 34 34 33 31 30 30 31 32 33 34 35 35 35 34 32 31 30 29 29 29 29 29 29 30 30 30 29
6 6 7 8 10 12 14 16 16 18 19 21 23 23 25 27 28 28 28 30 32 32 32 31 31 29 27 28 29 31 32 34 35 35 35 34 33 31 30 30 29 29 29 29 29 29 29 29 30
6 6 7 7 9 12 15 16 15 16 15 16 18 20 23 25 27 28 28 27 28 29 30 30 31 31 30 30 30 31 32 34 36 36 36 36 36 35 34 33 33 32 31 31 31 31 31 30 29
8 8 9 9 11 14 17 18 18 18 17 17 18 21 24 27 29 31 32 33 31 31 32 34 34 35 35 35 34 34 34 36 37 38 39 40 39 38 36 35 36 35 35 35 35 35 35 35 34
13 12 12 13 15 18 20 21 21 20 20 21 22 24 26 28 30 32 34 35 36 36 36 37 38 39 40 40 39 39 39 39 40 40 41 42 41 40 39 39 38 38 38 38 39 38 38 39 39
14 14 14 15 17 19 22 23 22 20 20 21 22 23 25 27 28 30 31 33 35 36 36 37 39 42 43 44 43 43 43 43 44 44 44 45 45 44 43 43 42 42 41 41 41 40 41 41 41
12 12 13 14 16 18 19 19 19 18 18 20 21 23 25 26 27 30 32 34 36 37 39 40 40 41 43 45 46 46 46 46 47 47 48 48 48 48 47 47 47 46 46 45 45 44 44 44 44
13 13 12 13 14 16 18 18 19 19 20 22 25 28 30 31 32 34 36 37 40 42 44 45 46 46 47 49 51 52 52 53 53 53 53 53 53 53 52 52 52 52 51 51 51 50 49 49 48
13 13 13 14 17 19 21 23 23 22 23 25 29 32 34 35 36 38 39 41 43 45 47 48 49 51 52 52 54 55 56 57 58 59 60 60 60 60 59 59 59 59 58 57 57 56 55 54 54
14 15 17 19 21 23 26 27 27 27 29 30 32 34 36 38 40 41 42 43 44 46 47 48 50 51 52 53 54 55 57 59 60 61 62 63 64 65 65 65 65 65 64 63 63 62 62 61 60
14 16 19 21 23 25 28 29 30 31 33 34 36 38 39 41 42 43 44 46 48 49 50 53 54 56 57 58 58 58 60 61 63 64 64 64 64 64 66 67 69 69 68 68 67 67 66 66 65
15 17 19 21 23 26 28 30 31 34 37 40 43 44 45 46 47 47 49 52 53 54 56 59 61 63 64 64 65 65 65 65 66 67 68 68 68 67 67 67 68 68 69 68 68 67 67 67 67
19 20 21 22 23 27 31 33 36 39 43 46 48 50 52 53 54 56 58 60 62 62 63 64 67 68 69 70 72 72 71 71 72 72 72 73 74 74 73 72 71 71 71 71 70 69 68 66 65
19 20 22 24 26 30 35 39 42 44 47 51 53 56 58 61 63 66 67 68 69 69 70 71 72 73 74 75 77 78 77 76 76 77 76 77 78 78 79 78 77 76 75 75 74 73 72 69 67
19 22 25 28 31 34 37 42 46 48 51 53 56 59 63 66 70 73 73 74 75 75 75 76 76 77 79 79 80 80 79 78 78 79 78 77 77 79 80 81 81 79 78 78 79 78 76 75 73
22 25 28 33 37 39 43 48 53 56 58 61 63 65 68 71 74 76 77 79 80 81 81 80 80 81 82 81 80 78 74 72 71 71 73 73 74 76 79 81 81 81 80 80 81 80 80 79 77
25 28 33 39 42 45 49 54 59 63 66 69 70 70 72 73 75 77 79 81 82 83 84 84 83 81 79 74 68 62 58 56 55 56 58 61 64 68 71 76 78 78 78 79 80 80 81 81 79
28 33 38 43 47 50 55 60 65 69 72 73 73 73 72 73 76 78 80 82 83 83 84 83 80 74 66 58 50 45 43 44 46 49 52 56 59 62 65 68 70 70 70 69 69 70 72 75 76
32 38 43 48 53 58 61 65 69 73 75 74 72 70 70 73 76 78 80 80 80 79 77 73 65 55 47 40 36 36 39 42 44 45 47 49 52 55 60 66 68 66 64 63 61 58 58 62 64
37 44 49 54 58 62 65 69 72 75 73 70 68 67 69 72 73 73 71 67 63 60 55 48 41 35 31 31 32 34 37 38 37 37 39 42 44 44 44 52 65 68 63 59 56 52 50 51 54
42 48 53 56 59 63 68 72 74 73 72 69 67 66 66 64 62 59 55 53 51 46 40 35 31 29 29 29 30 32 34 34 35 36 38 40 40 38 37 37 46 61 63 59 56 51 48 48 48
46 51 55 58 61 65 70 74 74 72 68 65 63 61 59 58 55 51 51 48 44 38 33 29 27 26 26 26 28 30 32 33 33 34 36 37 35 31 29 28 30 43 56 59 57 53 51 49 48

GEFSSGP_500_meanwind_012.txt.gz
Wind_Speed
10 10 11 12 14 16 16 17 16 17 18 18 18 19 20 21 21 21 22 22 24 24 24 24 24 25 26 26 26 26 26 26 25 25 24 23 22 22 21 22 22 21 20 20 20 20 20 20 20
6 8 9 10 12 14 15 15 16 17 17 17 17 18 20 20 20 20 20 20 21 23 23 23 25 26 27 28 28 29 29 28 28 27 26 25 24 24 24 24 25 25 24 23 23 23 23 24 24
6 6 6 6 7 9 10 11 13 15 15 14 14 15 16 18 19 20 20 19 20 21 22 23 25 27 28 29 30 30 30 29 29 29 28 27 26 26 27 27 27 27 26 26 26 26 26 27 27
5 4 3 3 3 3 5 7 10 12 11 11 11 11 12 14 16 17 19 20 21 22 24 25 26 27 28 29 30 30 31 30 30 30 30 30 29 29 30 30 29 29 29 29 28 28 29 29 30
5 5 4 4 4 5 5 5 5 6 7 9 10 10 10 11 13 16 18 20 22 23 24 26 27 27 28 30 31 32 32 32 33 33 33 33 33 32 32 33 32 32 31 31 31 30 30 31 31
6 6 6 6 6 7 7 7 7 7 8 11 13 14 14 15 16 17 20 22 24 26 28 29 30 30 31 32 33 35 35 36 37 37 37 37 37 36 36 35 35 34 34 33 33 32 31 31 32
6 6 6 6 7 9 12 13 13 13 13 14 16 18 19 20 21 22 24 26 28 30 32 33 35 36 36 37 38 38 39 39 40 40 41 41 41 40 40 39 38 37 36 36 35 35 34 33 32
7 8 8 9 10 11 12 13 14 15 16 17 18 20 21 23 25 26 27 28 29 30 32 34 36 37 38 38 39 39 39 39 40 40 41 42 42 42 42 42 41 40 39 39 38 38 37 35 34
8 8 9 11 12 12 12 12 12 13 15 16 18 19 21 24 26 28 29 30 30 31 31 32 34 35 37 38 38 38 39 38 38 39 39 40 41 42 43 44 43 42 42 41 42 41 41 39 38
10 10 11 11 11 11 12 12 12 13 14 16 19 21 23 25 27 29 30 31 32 32 33 33 35 36 37 39 39 39 39 40 40 40 40 40 40 40 41 43 44 44 44 43 43 43 43 42 41
11 11 12 12 11 11 12 13 14 15 16 17 19 21 22 24 26 28 29 30 31 32 33 34 35 37 39 40 42 43 43 43 43 43 43 43 43 42 42 42 42 43 44 45 44 43 43 43 43
10 11 11 11 11 11 11 11 12 14 15 16 18 20 22 24 26 28 30 32 33 34 35 36 37 38 39 41 42 44 45 46 47 47 47 47 47 47 46 45 44 44 45 44 44 44 44 44 44
9 10 9 9 9 8 8 9 11 12 15 17 20 23 25 28 30 32 34 36 37 39 40 41 42 43 44 44 45 45 46 47 48 49 50 50 51 51 51 50 49 47 47 46 45 45 46 46 46
8 8 7 7 7 8 9 11 13 16 19 21 24 26 29 31 34 36 38 40 42 44 46 47 48 49 50 51 51 52 52 52 52 52 52 52 52 52 52 53 52 52 51 50 49 48 48 49 49
7 7 7 8 10 12 13 15 18 20 22 24 26 29 32 35 38 40 43 45 47 49 51 53 54 55 56 56 56 57 58 58 58 57 57 56 56 55 54 54 54 54 54 54 53 52 51 51 51
7 8 10 12 14 16 17 18 21 24 26 28 31 34 37 40 42 45 48 50 52 54 56 58 60 61 62 63 63 63 63 63 62 62 62 62 61 61 61 60 59 58 57 57 56 56 55 55 54
7 10 12 14 16 18 21 23 26 29 32 35 38 41 44 47 50 53 55 57 59 60 61 63 64 66 67 68 68 67 66 66 65 65 64 64 64 64 64 64 63 63 62 61 59 58 58 58 58
9 11 13 15 17 20 24 28 32 36 39 42 46 49 53 56 59 61 63 65 67 68 68 68 69 70 71 72 73 72 70 69 68 67 67 67 66 66 67 66 66 66 65 64 64 62 61 61 61
12 13 14 16 19 23 28 33 37 41 44 48 51 55 59 62 65 68 71 74 76 77 77 76 75 75 75 76 77 76 75 74 73 72 72 72 72 72 72 71 71 70 69 68 67 67 65 64 64
14 15 17 19 22 27 31 36 41 44 48 52 56 60 63 67 71 74 78 81 83 85 86 85 83 81 79 79 80 81 81 81 80 79 78 77 77 77 77 76 76 75 75 73 72 71 70 68 66
15 17 21 25 27 30 36 42 46 50 54 58 61 64 68 72 77 81 84 86 88 89 90 91 90 89 86 84 84 84 85 86 86 86 86 85 84 83 83 82 82 81 80 79 78 77 75 73 70
18 21 24 29 32 36 42 48 51 55 59 62 65 69 74 79 83 85 87 87 87 87 87 85 84 83 83 83 84 84 85 85 87 87 87 88 89 89 88 88 88 87 86 84 83 82 81 79 76
21 25 28 32 37 41 46 52 56 59 63 67 71 75 79 82 84 85 84 83 81 79 75 71 68 66 65 64 65 66 68 71 73 75 77 79 81 84 86 88 89 89 89 88 87 86 85 84 82
25 29 33 36 40 45 50 55 60 63 68 72 76 78 80 81 81 80 78 74 69 63 59 57 55 54 52 51 50 48 46 45 44 46 49 54 59 64 69 74 79 82 85 87 88 89 88 88 87
29 32 36 40 44 48 53 58 63 68 73 76 77 79 79 77 75 72 67 60 55 53 51 50 49 48 47 45 43 41 38 34 30 27 26 29 33 37 42 47 53 60 66 72 76 81 84 86 87
33 36 38 42 46 51 56 60 66 72 74 77 78 77 74 71 68 63 58 53 50 48 47 47 47 46 45 42 40 39 36 32 27 22 20 20 22 26 30 34 38 42 48 54 60 66 72 77 81
35 38 40 45 51 56 59 63 70 73 75 77 76 73 68 64 61 57 53 49 48 46 46 46 47 46 45 43 40 37 35 32 28 25 22 21 22 23 25 28 31 34 37 42 47 53 59 66 72
36 39 45 50 55 59 62 68 72 74 76 76 73 68 62 58 55 53 50 48 46 45 46 47 48 48 46 44 41 38 35 32 29 26 24 24 24 25 27 28 30 32 34 36 39 43 48 55 61
38 42 48 53 57 62 67 70 73 75 76 75 70 63 57 53 52 51 50 49 47 47 48 49 50 50 48 46 44 41 38 35 33 31 29 28 28 29 30 31 32 33 34 35 36 38 41 46 50
39 45 51 55 59 63 67 72 74 76 75 72 66 58 52 51 52 52 51 50 50 50 52 53 53 53 52 50 48 45 42 40 38 37 35 34 33 33 33 34 34 35 35 34 34 35 36 37 39

GEFSSGP_500_meanwind_018.txt.gz
Wind_Speed
3 3 2 3 5 6 7 8 10 11 13 13 14 16 17 18 19 20 20 21 22 22 23 24 25 26 28 29 29 30 30 31 31 31 30 29 29 28 27 26 25 24 25 25 26 26 25 24 24
3 3 2 2 2 2 3 5 7 8 10 11 13 14 15 16 17 17 16 16 18 19 20 22 24 25 27 28 29 30 31 32 33 33 33 32 32 31 31 30 29 28 28 28 29 29 29 29 27
6 6 6 5 3 2 1 0 2 5 7 9 10 10 11 11 12 13 14 14 16 17 19 21 23 24 26 28 29 30 31 33 34 34 34 34 34 34 33 33 32 31 31 31 31 32 33 32 31
9 9 8 7 7 6 5 5 5 5 6 6 7 8 9 10 11 13 14 16 17 18 20 22 24 26 27 29 30 31 33 34 35 36 36 36 36 36 36 35 35 35 34 34 34 34 35 35 35
11 10 8 8 8 7 8 7 6 6 7 7 8 8 9 11 13 15 17 19 21 22 24 25 27 29 31 32 34 35 36 37 38 38 39 39 39 39 39 39 38 38 38 37 37 37 37 37 38
10 8 7 6 6 6 6 5 5 5 7 8 10 11 12 13 15 16 19 21 22 24 26 28 30 32 33 35 37 38 39 40 41 42 42 43 43 43 43 43 43 42 41 41 40 40 40 39 39
8 6 7 6 7 7 6 6 6 6 7 9 10 11 12 13 15 17 18 20 22 24 26 29 31 33 35 36 37 38 39 41 42 43 45 46 48 48 48 48 47 46 45 44 44 43 43 43 42
7 6 7 7 7 7 7 7 8 9 10 11 13 14 15 16 18 19 21 23 24 26 29 31 33 36 38 40 41 42 42 43 43 43 44 45 47 49 50 51 51 50 50 49 48 47 46 46 45
8 8 8 8 8 7 7 8 9 11 12 14 15 16 17 18 19 21 23 25 27 29 31 33 35 37 39 41 43 44 46 46 47 47 47 47 47 47 48 50 51 51 52 52 51 51 50 49 49
9 8 8 8 8 8 8 8 9 10 11 13 14 16 18 20 22 24 26 29 31 34 36 38 40 42 43 45 46 48 49 50 50 50 49 50 50 50 49 50 50 51 51 52 52 52 52 52 51
8 9 9 9 10 10 9 9 9 10 11 13 15 18 20 23 26 29 32 34 37 39 42 44 46 48 50 51 52 53 54 54 55 55 55 54 53 53 52 52 52 51 51 52 52 53 53 53 53
9 9 10 10 10 10 10 11 12 13 15 18 20 23 26 29 32 35 38 41 44 47 49 52 54 56 57 58 59 59 60 60 60 60 60 60 59 58 57 56 55 55 54 53 53 53 54 54 53
8 9 9 9 10 11 12 13 15 16 19 22 25 27 30 33 37 40 44 47 51 54 57 60 62 64 66 67 68 68 68 68 68 67 66 65 64 63 62 61 60 59 58 57 56 55 55 55 55
8 8 8 9 10 11 12 14 16 18 21 25 28 32 36 39 43 47 50 54 58 61 64 67 69 71 73 75 76 77 78 77 76 75 74 73 71 69 67 66 65 64 63 62 61 60 59 58 58
6 7 7 8 9 10 11 13 17 21 25 30 34 38 42 46 50 54 57 61 64 67 71 73 76 78 80 82 83 84 84 85 84 83 81 80 78 77 74 71 70 69 68 67 66 65 64 63 62
5 7 8 9 10 12 15 17 21 26 31 35 40 45 49 53 57 60 64 68 71 75 77 80 82 83 85 87 88 88 88 87 86 85 85 84 83 82 80 78 75 73 72 71 70 69 68 67 66
6 8 10 12 14 16 20 23 27 31 36 41 46 51 55 59 63 66 70 74 77 80 82 84 86 87 88 89 88 87 86 85 84 82 81 82 83 84 84 83 81 78 76 75 74 73 72 70 70
9 11 13 15 19 22 25 29 32 36 40 45 50 55 60 64 68 72 75 78 81 83 85 87 88 87 86 82 79 76 73 71 70 68 69 71 75 80 85 86 84 82 81 79 77 76 75 73 72
13 14 16 18 22 26 29 32 35 39 44 49 54 60 64 69 72 76 78 81 82 84 86 86 84 80 74 69 65 62 57 53 50 50 52 54 58 65 76 85 87 86 84 83 81 80 78 76 75
16 17 19 21 25 29 33 36 37 43 48 53 58 64 68 72 75 77 79 81 83 85 85 82 75 68 64 61 58 53 49 46 44 45 46 47 47 51 59 72 84 89 88 86 85 83 81 79 77
17 19 22 25 28 31 37 39 41 46 51 57 63 68 72 75 78 79 80 82 83 82 78 71 64 61 58 55 52 49 47 46 46 45 45 45 45 45 47 55 70 83 90 90 89 87 85 83 80
19 22 25 28 32 33 38 43 44 50 57 63 68 72 74 77 78 80 81 82 80 76 70 63 60 58 56 54 52 50 49 47 46 45 44 43 43 43 43 43 51 66 82 90 91 90 89 87 84
22 25 28 31 33 35 39 46 50 56 62 67 71 74 76 77 79 81 81 79 75 69 63 59 58 58 57 56 55 53 52 51 49 48 46 44 42 41 40 39 40 47 61 77 87 91 91 90 88
24 27 30 33 37 39 43 49 55 61 66 70 73 75 76 78 79 80 79 74 69 64 60 59 60 60 60 60 59 57 55 54 53 51 49 46 43 40 38 36 35 36 42 54 69 81 88 90 90
25 29 33 38 41 43 46 52 59 64 68 71 74 75 76 78 79 78 74 69 64 61 61 62 63 64 64 63 61 59 58 57 55 54 51 48 44 40 37 35 34 32 33 37 47 60 72 82 87
26 28 32 37 41 45 49 55 62 67 70 72 75 75 77 79 78 74 70 66 63 62 63 65 65 64 63 60 58 57 55 54 54 54 53 50 47 42 37 34 33 32 31 31 34 42 52 63 73
27 31 34 38 43 48 53 58 64 69 72 74 75 76 77 77 75 71 67 64 64 65 66 65 63 60 58 56 54 52 51 51 50 50 50 49 48 45 40 36 33 32 31 31 30 32 38 45 54
28 32 36 39 45 51 57 62 67 70 73 75 75 76 77 75 71 68 66 65 66 66 64 61 58 56 53 52 51 50 50 49 49 48 47 45 44 44 43 40 36 33 32 31 31 31 32 35 40
30 33 36 40 45 52 60 65 68 72 74 75 76 76 75 72 68 66 66 67 66 63 60 57 55 53 52 51 51 51 50 50 49 48 46 44 42 41 42 42 40 37 34 33 33 33 33 34 35
29 32 37 43 49 54 62 67 71 73 74 75 75 75 72 69 67 67 67 66 63 59 56 54 53 52 53 53 53 52 52 51 50 48 46 43 41 39 39 41 42 41 39 37 35 35 35 35 36

GEFSSGP_500_meanwind_024.txt.gz
Wind_Speed
2 1 2 1 2 2 2 3 2 3 4 5 7 9 12 15 16 17 16 17 19 21 23 25 27 29 31 33 35 37 38 38 39 39 38 38 37 37 36 36 35 35 34 33 32 31 31 30 30
6 4 3 1 1 3 4 3 2 2 2 3 5 7 9 11 12 13 13 14 15 17 18 20 22 24 26 28 29 31 33 34 36 37 38 39 39 39 39 39 39 39 38 37 36 35 34 34 34
7 7 6 7 8 7 7 5 3 3 2 2 3 5 6 8 10 11 13 14 16 17 18 20 21 23 25 27 28 30 31 32 34 35 37 38 39 40 40 41 41 42 41 41 39 38 37 37 37
10 10 10 11 10 9 8 7 5 5 4 4 5 7 8 10 12 13 15 16 18 19 20 22 23 25 26 28 30 32 33 35 36 38 39 40 41 42 43 43 43 43 44 44 43 42 41 40 40
10 11 10 9 8 8 7 7 7 7 7 7 8 8 10 11 12 14 15 17 19 20 22 24 25 27 28 30 32 33 35 37 38 40 41 43 44 45 46 47 47 46 46 46 46 45 44 43 42
8 11 9 8 8 8 8 8 8 8 7 8 9 10 11 12 14 15 17 19 21 23 25 27 29 31 33 35 36 38 39 40 41 42 44 45 46 47 48 49 50 50 50 49 49 48 47 46 45
11 11 10 10 10 10 10 9 9 9 9 10 10 11 12 14 16 18 20 23 25 28 31 33 36 38 40 42 43 44 45 46 47 48 48 49 50 50 50 51 52 53 53 53 53 52 51 50 49
11 11 11 12 11 11 11 11 11 11 11 12 12 13 15 17 20 22 25 28 32 35 38 40 43 45 48 50 51 53 54 54 55 55 55 55 55 55 55 55 55 55 55 55 55 55 55 54 53
12 13 13 13 13 13 12 12 12 12 12 13 15 17 19 22 25 28 32 35 39 42 45 48 51 53 56 58 60 61 62 63 63 63 63 63 63 62 62 61 60 59 58 58 57 57 57 58 57
13 13 13 12 12 12 11 11 12 12 14 15 18 21 24 27 31 34 38 41 44 48 51 55 58 60 62 64 66 67 68 69 70 70 70 69 69 69 68 67 66 65 64 62 60 60 59 59 60
12 12 11 10 10 10 10 11 12 14 16 19 22 26 29 33 37 40 43 47 50 53 57 60 63 66 68 70 72 73 74 75 75 75 75 75 73 73 72 72 72 71 70 67 65 64 62 62 61
10 9 8 8 8 9 10 12 14 17 20 24 27 30 34 38 41 45 48 51 55 58 62 65 68 71 73 75 77 78 79 80 80 80 80 80 79 77 75 75 75 75 74 73 71 69 67 65 64
7 6 6 7 8 10 12 15 17 20 23 27 31 35 39 42 45 48 52 55 59 63 67 70 73 75 76 78 79 80 81 83 83 84 84 85 85 83 81 78 77 77 76 76 75 74 72 70 68
4 5 6 8 9 11 14 17 21 24 27 31 34 38 41 44 48 51 55 60 64 68 71 74 77 78 79 80 82 83 84 86 87 89 89 89 88 87 86 83 80 78 77 78 78 77 76 75 73
5 7 8 10 12 14 15 18 24 27 30 34 37 40 43 47 51 56 60 65 69 72 75 77 78 79 81 83 85 86 88 89 89 88 85 83 81 80 78 77 75 74 73 75 77 79 80 79 77
8 10 11 13 15 17 20 20 25 29 33 36 40 43 47 51 56 61 65 69 73 75 77 79 80 82 83 85 86 87 86 83 79 76 72 69 67 65 65 65 65 65 66 68 72 76 79 81 81
12 14 13 16 19 20 24 26 29 33 36 39 43 47 51 56 61 65 70 73 76 78 79 81 82 84 85 85 83 80 76 73 69 66 63 61 59 58 57 56 56 56 57 60 65 71 76 80 83
15 17 18 19 22 23 26 29 31 35 39 42 46 50 55 61 66 70 73 76 78 80 81 83 84 84 83 80 77 73 70 68 65 63 62 60 59 58 56 54 53 53 53 54 56 63 71 77 83
18 18 19 21 24 26 29 30 31 36 40 44 49 54 60 66 70 73 76 78 80 81 83 84 84 83 80 77 74 71 68 67 65 64 63 62 61 60 58 57 54 53 52 52 52 54 61 72 81
18 20 20 20 23 27 30 31 32 37 42 47 53 59 64 69 73 76 79 80 82 83 84 84 83 81 78 75 72 69 66 64 62 60 59 58 58 58 58 59 57 55 53 52 51 51 53 60 72
19 21 23 25 25 27 32 33 34 40 46 51 58 63 68 73 78 79 81 81 82 83 83 82 81 78 75 70 66 63 60 57 55 53 52 52 51 52 53 54 56 56 56 54 53 51 50 51 59
20 21 22 25 27 29 32 36 38 45 50 57 62 67 72 77 79 80 81 81 82 82 82 80 77 73 68 65 63 60 58 56 54 53 51 50 49 48 48 48 50 54 56 56 55 53 51 50 51
21 22 24 26 29 30 32 38 44 50 55 60 65 70 75 79 79 79 81 82 82 81 79 77 71 67 65 63 62 60 59 58 57 55 53 50 48 47 46 46 45 47 51 55 56 55 52 51 48
23 24 24 27 32 36 40 44 47 53 59 64 70 73 76 77 78 80 81 81 81 80 77 71 67 64 63 62 62 61 61 59 57 55 51 48 46 45 45 44 44 44 45 49 54 55 53 51 49
23 26 30 34 36 38 40 43 49 56 62 67 71 74 76 78 80 80 81 80 79 77 72 67 65 64 63 63 62 62 62 60 58 53 49 46 44 43 42 42 42 42 42 44 48 52 53 51 49
25 27 30 33 35 37 41 46 53 58 63 67 72 76 78 79 79 80 80 79 77 73 69 65 64 64 64 63 63 62 62 59 55 51 48 46 45 43 42 40 38 39 40 41 43 48 50 50 48
26 27 29 32 36 40 45 49 54 59 64 69 73 76 77 78 79 79 79 78 75 70 66 65 65 65 64 63 63 62 60 56 52 49 47 46 45 44 43 41 38 36 36 38 40 44 48 48 46
26 29 31 34 39 44 47 52 56 60 65 71 74 75 76 78 79 78 78 76 72 68 65 65 65 65 65 63 62 61 58 55 52 50 48 47 46 45 43 42 39 35 33 34 37 40 44 46 45
26 29 31 35 39 45 50 54 57 62 67 72 75 76 77 78 78 77 77 74 69 66 65 65 66 65 64 62 61 59 57 54 53 52 50 48 47 46 44 42 39 35 32 32 33 36 41 43 43
27 31 34 36 40 44 48 55 58 64 69 73 75 76 77 77 76 77 75 71 66 64 64 65 66 65 63 61 59 58 57 56 55 55 53 52 50 48 46 43 39 35 32 30 31 33 37 40 41

GEFSSGP_500_meanwind_030.txt.gz
Wind_Speed
5 5 5 5 6 5 7 7 7 4 2 5 7 8 8 8 7 7 7 9 10 11 13 14 16 18 20 22 23 25 27 28 30 33 35 38 40 42 44 46 46 47 46 45 44 42 41 40 39
11 10 8 8 8 7 7 7 8 5 2 2 4 6 7 8 9 9 9 10 11 13 15 16 18 20 21 23 24 26 27 29 31 32 34 35 37 39 41 43 45 47 48 49 48 47 46 45 44
13 14 12 11 11 11 10 9 9 7 5 4 4 6 7 9 10 10 11 12 13 15 17 19 21 23 25 26 28 29 31 32 34 35 36 37 38 39 40 42 43 45 47 49 50 50 50 50 48
15 15 12 12 12 11 11 11 10 8 6 5 6 7 8 9 10 11 13 15 17 19 21 23 26 28 30 32 34 35 37 38 39 40 41 42 43 44 44 45 45 46 46 48 49 51 52 52 52
15 13 12 12 11 11 11 11 10 8 8 8 8 8 9 10 12 14 16 18 21 24 26 29 31 33 36 38 40 42 43 45 47 48 48 49 50 50 50 50 51 51 50 50 50 51 52 53 54
13 11 13 13 12 13 13 12 11 10 10 9 8 9 10 12 15 18 21 24 26 29 32 34 37 40 42 44 47 49 51 53 55 56 57 58 58 58 58 57 57 57 56 56 54 53 53 54 55
13 14 16 15 15 15 14 13 11 10 9 9 10 11 13 16 19 22 25 28 31 34 37 39 42 45 48 51 54 57 59 61 63 64 65 66 66 66 66 65 64 63 63 62 60 59 58 57 57
17 18 17 16 15 14 13 11 10 9 8 10 12 14 17 20 23 27 30 33 36 39 42 45 48 51 54 58 61 63 66 69 71 72 73 74 74 73 73 72 71 70 68 67 66 65 64 62 61
17 17 15 14 12 12 11 9 9 9 10 12 16 19 22 25 28 31 34 37 41 44 47 50 54 57 60 64 67 69 72 74 76 78 79 80 80 79 78 77 76 75 74 72 70 69 68 67 66
13 12 11 10 9 9 8 9 10 12 13 16 20 23 26 29 32 35 38 41 45 48 52 55 58 62 65 68 71 73 76 78 80 81 82 83 84 84 83 82 81 79 78 76 75 73 72 71 70
9 8 7 6 6 7 8 10 12 14 16 20 23 26 29 32 35 38 42 45 49 52 56 60 63 67 70 72 75 77 80 82 83 85 86 87 87 87 87 87 85 84 82 80 79 77 76 75 74
5 4 4 5 7 8 11 13 15 17 19 22 25 29 32 35 38 42 45 49 53 57 60 64 67 71 74 77 79 81 83 85 86 88 89 91 91 91 91 91 90 89 87 85 83 82 80 79 78
4 5 6 8 10 12 15 17 19 20 23 25 28 30 33 37 41 44 48 52 56 60 64 67 71 74 77 79 82 84 87 89 92 93 94 94 94 94 92 91 90 89 89 87 86 85 83 82 81
8 9 11 12 13 15 18 21 22 23 25 27 29 32 35 39 43 47 51 55 59 63 67 71 74 77 79 82 85 89 92 94 94 93 91 88 86 85 84 83 82 82 82 83 83 83 82 82 82
11 13 15 15 16 17 19 22 24 26 27 28 30 33 37 41 46 50 54 59 63 67 71 74 77 79 83 86 90 93 94 92 89 84 81 77 75 73 72 72 72 72 73 74 75 77 78 78 80
14 16 18 18 19 20 20 22 25 26 27 29 32 36 40 44 49 53 58 62 67 71 74 77 79 83 86 89 91 92 89 85 80 76 73 71 69 68 67 67 66 66 66 67 69 71 72 74 77
15 16 18 19 19 19 21 22 25 27 29 32 36 39 43 47 52 56 61 66 71 74 77 80 82 85 88 89 89 86 81 77 74 73 71 70 69 68 67 66 64 63 63 62 64 66 69 71 74
14 14 15 17 17 19 20 23 26 29 32 35 38 42 46 50 55 60 65 70 74 77 80 82 85 86 88 87 83 78 74 72 72 71 71 69 67 66 64 63 61 60 60 60 60 63 66 68 71
15 14 15 17 19 20 21 24 27 31 34 37 40 44 49 54 59 64 69 73 77 79 81 84 85 86 86 83 78 74 71 71 71 70 68 66 63 60 58 57 56 55 55 56 58 59 63 66 69
16 16 17 18 19 20 21 23 27 31 34 38 43 47 53 57 62 68 72 76 78 80 82 84 86 86 83 79 76 73 72 71 69 66 63 59 56 54 52 50 49 49 49 51 53 56 58 63 67
17 17 18 18 19 22 23 22 28 31 36 41 46 51 56 60 66 71 74 77 79 81 83 84 85 83 79 76 74 72 71 68 63 58 54 53 51 50 48 47 46 44 44 45 47 50 54 58 63
17 17 18 19 20 24 26 26 30 35 40 45 49 54 58 63 68 72 75 77 79 81 83 84 84 80 77 75 74 73 69 63 58 53 51 51 52 51 50 48 46 44 42 41 42 44 48 53 58
18 18 19 21 22 24 26 29 33 38 43 48 52 56 60 65 70 72 74 77 79 81 83 83 81 77 75 75 74 71 66 59 54 51 52 53 54 54 53 51 49 46 44 42 41 40 42 47 53
20 21 21 22 23 24 28 32 36 41 45 49 53 57 61 66 70 72 74 77 79 81 82 81 77 75 75 75 72 68 62 56 53 53 54 54 55 55 55 53 51 48 46 43 41 40 40 42 47
22 23 24 25 26 28 31 34 38 42 47 51 55 58 62 66 69 72 75 77 79 81 81 78 75 74 74 73 70 64 59 55 55 57 58 58 58 57 56 55 52 50 47 44 42 40 39 39 43
24 25 27 29 30 30 32 36 40 44 48 52 56 59 63 67 70 73 75 77 79 80 79 76 73 73 73 71 67 61 58 57 59 61 62 63 62 61 59 57 54 51 47 44 42 40 38 37 39
27 27 28 30 32 34 36 39 42 46 50 53 56 60 64 68 71 73 75 77 79 79 77 74 72 72 72 69 64 60 58 60 62 64 66 66 66 65 63 60 55 51 47 45 42 39 37 36 36
28 29 31 32 36 40 40 41 44 47 50 54 57 61 65 69 71 73 75 77 78 77 74 72 72 72 70 67 63 60 60 62 65 67 69 70 70 69 64 58 51 46 44 43 40 37 35 33 33
30 31 32 34 36 40 43 42 44 47 50 54 58 62 66 69 71 73 75 77 77 75 72 70 70 70 68 66 62 61 62 64 67 69 72 73 72 68 60 50 41 36 35 36 36 34 32 31 30
30 32 33 35 38 40 42 43 45 47 50 54 58 62 66 69 71 73 74 75 74 72 70 69 69 69 67 65 62 61 63 66 68 71 74 75 72 63 52 41 30 21 19 24 28 30 28 27 27

GEFSSGP_500_meanwind_036.txt.gz
Wind_Speed
4 3 2 2 1 1 1 3 4 2 1 3 4 5 5 6 8 8 9 11 12 12 13 14 15 16 18 19 21 23 24 26 27 28 29 30 31 32 32 33 34 35 37 40 43 45 47 49 49
7 7 6 6 6 5 5 4 4 5 5 6 7 7 8 9 10 10 11 12 13 14 15 17 19 21 23 25 27 28 30 32 33 35 36 37 38 39 39 39 40 40 40 40 41 43 45 48 50
11 11 10 10 9 9 8 8 8 8 9 9 9 9 9 9 10 10 11 13 14 16 19 21 23 25 27 30 32 34 36 37 39 41 42 44 45 46 46 46 47 47 47 46 46 45 45 46 48
12 12 12 11 10 10 10 10 10 10 10 9 9 8 9 9 10 12 13 15 18 20 23 26 28 31 33 35 37 39 41 43 45 47 49 50 51 53 53 54 54 54 54 54 53 52 51 50 49
12 12 11 10 11 11 11 11 10 10 9 8 7 8 9 11 13 15 17 20 23 26 28 31 34 36 38 41 43 46 48 50 52 54 56 57 58 60 61 61 61 61 61 61 60 60 59 57 56
12 12 12 12 12 11 10 9 8 7 6 6 8 10 12 14 17 20 22 25 28 31 33 36 38 41 44 46 49 51 53 56 58 60 62 64 65 67 68 69 69 69 69 68 67 66 65 64 63
13 13 12 11 10 9 8 6 5 5 6 8 10 13 15 18 21 24 27 30 33 35 38 41 43 46 48 51 54 57 59 62 64 66 68 70 72 73 74 75 76 76 76 75 74 73 72 70 69
12 11 10 9 7 6 5 5 6 7 9 11 14 16 19 23 26 29 31 34 36 39 42 45 47 50 53 56 59 62 65 67 69 71 72 74 76 77 79 80 81 81 81 81 81 80 78 76 74
9 7 7 5 4 4 6 7 10 12 14 16 19 21 24 27 30 32 34 37 39 42 45 48 52 55 58 61 63 66 68 71 72 74 75 77 78 80 82 84 85 86 87 87 87 86 85 83 80
5 3 3 4 5 6 9 11 14 16 18 21 23 26 28 30 32 35 37 40 43 46 49 52 55 58 61 63 66 69 71 73 75 77 79 81 83 85 86 88 90 91 92 93 93 93 92 91 88
3 4 6 7 9 11 13 15 18 20 22 24 26 29 31 33 34 37 39 42 45 49 52 55 58 61 63 66 69 71 74 76 79 82 84 86 88 90 92 93 95 95 96 97 98 99 99 98 96
7 9 11 12 14 16 18 20 21 23 25 27 29 31 32 34 36 39 42 44 48 51 54 57 60 63 66 69 72 74 77 80 83 87 89 91 93 94 95 95 94 93 93 93 93 95 96 98 99
11 13 15 16 18 20 21 22 23 25 26 28 30 32 33 36 38 40 43 46 49 52 55 59 62 65 69 72 75 79 82 85 89 91 93 94 95 95 93 91 89 87 86 85 85 85 87 89 92
15 16 18 19 20 21 21 22 23 25 27 29 30 32 35 37 39 42 45 47 50 54 57 61 65 69 73 76 80 84 87 90 93 94 95 94 93 91 88 86 84 82 80 79 78 78 79 80 82
17 18 18 19 20 20 21 22 23 25 26 28 30 33 35 38 41 44 47 49 53 56 60 64 68 72 76 80 84 87 90 93 94 94 93 90 88 85 83 80 78 75 72 71 70 70 71 72 75
17 18 18 18 19 20 21 22 23 24 26 27 30 33 36 40 43 46 49 52 55 59 63 67 71 75 79 83 87 90 92 93 93 91 88 86 83 81 78 74 70 66 63 61 59 59 61 63 67
18 18 19 19 20 21 21 21 23 24 25 28 31 34 38 41 45 48 51 54 57 61 66 70 74 78 82 85 89 91 92 91 89 86 85 83 80 76 71 66 61 57 55 53 52 52 53 54 58
18 18 19 20 19 20 20 21 23 24 26 29 32 35 40 43 46 49 53 56 60 64 68 73 77 80 84 87 89 90 89 87 85 83 82 79 75 70 64 59 56 54 53 52 52 50 50 50 51
17 17 18 18 18 19 19 21 23 25 27 30 34 38 42 45 48 51 54 58 62 67 71 75 79 82 84 87 88 88 86 84 82 81 79 74 69 64 61 58 57 57 56 56 55 54 52 51 50
16 16 17 18 18 19 20 22 24 26 29 33 36 40 43 46 49 53 56 60 65 69 73 76 79 83 86 88 89 87 84 82 81 78 74 69 65 63 62 61 61 62 61 61 60 59 56 53 52
15 17 18 19 20 21 21 22 26 28 32 35 38 41 44 47 51 54 58 63 67 70 74 77 80 84 87 88 86 84 81 80 78 74 68 65 64 64 65 65 66 67 67 66 65 63 61 57 54
17 18 20 21 22 23 25 24 28 31 34 37 40 42 45 49 52 56 61 64 68 71 74 78 81 85 87 86 84 82 80 79 77 72 67 65 65 66 67 69 70 70 70 69 68 66 63 59 55
18 20 21 22 23 24 26 27 30 33 36 38 41 43 46 50 54 58 62 65 69 72 75 79 82 85 85 84 82 80 80 78 75 71 67 66 67 69 71 72 72 70 68 66 65 63 62 59 56
20 21 21 23 24 25 28 30 33 35 37 39 42 44 48 51 55 59 63 66 69 72 76 79 82 84 83 82 80 79 78 76 74 70 68 68 69 71 72 72 68 64 59 56 55 55 55 54 53
22 24 25 26 26 27 29 31 33 35 37 40 43 45 49 52 56 59 63 66 70 73 76 79 82 82 81 80 78 77 77 75 73 72 71 72 72 72 72 69 62 54 48 43 40 40 43 45 46
24 26 28 30 29 28 28 30 32 35 38 41 44 46 49 53 56 60 64 67 70 73 75 79 81 81 80 78 76 76 75 74 73 73 73 75 75 75 72 65 56 48 40 33 26 24 27 33 37
25 27 29 31 32 31 31 33 34 37 40 42 44 47 50 53 57 60 64 67 70 72 75 78 79 79 78 76 74 73 73 73 73 73 74 76 76 74 70 61 53 45 37 29 20 12 13 20 27
27 30 32 34 37 37 35 35 38 39 41 43 45 47 50 53 57 61 64 67 69 72 75 77 78 78 76 74 72 72 72 73 74 74 75 76 76 72 66 57 50 42 35 29 21 11 2 10 18
28 30 32 34 37 39 40 38 39 40 42 44 46 48 51 54 58 61 64 67 69 72 74 76 77 76 74 71 70 70 71 72 73 74 75 75 75 71 63 54 46 40 35 30 23 14 5 4 11
28 30 33 35 38 39 40 40 42 42 44 45 47 49 51 55 58 61 64 66 69 71 74 75 75 74 72 70 69 69 69 71 72 73 74 75 74 71 62 52 44 38 33 28 23 16 7 1 7

GEFSSGP_500_meanwind_042.txt.gz
Wind_Speed
9 9 8 7 6 5 5 4 4 4 3 2 2 3 3 3 3 3 3 4 6 8 10 12 14 16 18 20 22 24 26 27 29 30 32 33 34 36 37 38 39 40 40 41 41 42 42 43 44
13 12 11 10 9 8 7 7 6 6 5 4 4 3 3 3 3 4 6 8 10 12 15 17 19 21 23 25 27 29 30 32 34 35 36 38 39 40 41 43 44 45 46 47 47 47 48 47 47
15 13 12 11 10 9 8 7 7 7 6 5 4 3 3 4 6 8 10 13 15 17 20 22 24 26 28 29 31 33 35 36 38 39 41 42 44 45 46 48 49 50 51 51 52 53 53 53 53
14 13 12 11 10 9 9 8 7 6 5 3 2 3 5 7 10 12 15 18 20 22 24 26 28 29 31 33 35 36 38 40 42 43 45 47 49 50 52 53 54 55 56 57 57 58 58 58 58
14 13 12 10 10 9 8 7 5 4 2 3 5 7 9 12 14 17 19 21 23 25 27 28 30 32 34 36 38 40 42 44 46 48 51 53 54 56 58 59 60 61 62 63 63 63 63 63 63
12 11 10 9 8 7 6 4 3 3 5 7 9 12 13 16 18 21 23 24 26 27 29 31 33 35 37 39 41 44 46 49 51 53 56 58 60 62 64 66 67 68 69 70 70 70 70 70 69
10 9 8 6 5 4 3 3 4 7 9 11 14 16 18 20 22 24 25 26 28 29 31 33 36 38 41 43 46 48 51 53 56 58 61 63 66 68 70 72 74 75 76 77 77 77 77 77 76
7 5 4 3 2 3 5 6 8 11 13 15 17 19 20 22 23 25 26 27 29 31 34 37 40 42 45 47 50 53 55 58 61 63 66 68 71 74 76 78 80 82 83 84 85 85 84 84 83
3 2 3 5 6 7 9 11 13 15 17 18 19 21 22 23 24 25 27 29 31 34 37 41 43 46 49 51 54 57 59 62 65 67 70 74 77 79 82 85 87 89 90 91 92 92 91 90 90
5 5 7 9 10 12 13 14 16 18 19 20 20 21 22 23 24 26 28 31 34 37 41 44 46 49 52 54 57 60 63 66 69 72 75 79 82 85 88 91 94 96 97 97 98 98 97 97 96
9 10 12 13 14 15 16 17 18 19 19 20 20 21 22 23 25 27 30 33 37 40 43 46 49 51 54 56 60 63 66 69 73 76 80 84 88 92 95 98 100 101 101 100 100 99 99 99 100
13 14 15 16 17 17 18 18 18 18 19 19 20 21 23 24 27 29 33 36 40 43 46 48 51 53 56 59 62 66 69 72 76 80 85 90 94 97 100 102 103 101 100 98 96 95 95 95 96
13 14 15 16 16 16 17 17 17 17 18 19 21 22 24 26 29 32 36 39 43 46 48 50 53 56 59 62 65 69 72 76 81 85 90 95 98 100 101 101 98 96 93 92 90 89 88 88 88
13 14 14 15 15 16 16 16 17 18 19 20 22 24 26 29 32 35 39 42 45 47 49 51 54 58 61 65 68 72 76 80 85 89 94 98 99 99 97 93 90 87 86 85 84 84 83 82 82
14 14 14 14 15 16 16 17 18 19 21 22 24 26 28 31 34 38 41 44 46 48 50 53 56 60 64 67 71 75 79 83 87 92 96 97 96 93 89 86 85 84 83 81 79 78 76 75 75
13 14 14 15 15 16 17 18 20 21 22 24 26 28 31 34 37 40 42 44 46 48 51 55 58 62 66 69 73 77 81 85 89 93 95 94 91 87 84 83 82 80 78 77 75 73 71 70 69
13 14 14 15 16 17 19 20 21 22 24 25 28 30 33 35 38 40 42 44 47 49 53 57 60 64 68 71 75 78 82 87 90 93 92 89 85 83 81 80 79 77 76 75 74 72 71 69 67
13 14 15 17 18 19 20 21 22 24 25 27 29 31 34 36 38 40 42 45 48 51 55 58 62 66 69 73 76 80 84 88 90 91 88 84 82 80 80 79 77 76 75 74 73 72 71 70 69
14 15 16 18 19 19 21 23 24 24 26 28 29 31 33 36 38 40 43 46 49 53 57 60 64 67 70 73 76 80 84 88 89 87 84 81 80 79 78 77 76 75 74 73 72 71 69 69 70
14 16 17 18 19 20 21 23 24 24 25 27 28 31 33 36 38 41 44 47 51 55 58 61 65 68 71 74 77 81 85 87 86 83 81 79 78 78 77 76 75 75 74 72 68 65 62 61 63
14 15 17 17 18 20 20 21 23 23 25 26 28 31 34 37 40 43 46 49 52 56 59 63 66 68 71 74 78 82 85 85 83 80 78 77 77 77 76 75 76 76 73 68 63 58 53 49 49
13 15 16 18 19 20 21 21 23 24 25 27 29 32 35 38 41 44 47 50 53 57 60 63 66 69 72 75 78 81 83 83 80 78 76 75 76 76 74 74 76 74 67 62 58 52 46 40 35
13 15 16 18 19 20 22 22 24 25 26 28 31 34 37 39 42 45 48 51 54 57 61 64 67 70 72 75 78 81 82 81 78 75 74 73 74 74 73 74 75 70 62 57 52 46 41 34 27
12 14 16 18 19 21 23 24 25 27 28 30 33 35 38 41 44 46 49 52 55 58 61 65 67 70 72 75 78 80 81 79 76 74 72 72 73 72 72 73 73 66 58 52 46 42 37 32 24
11 14 16 19 21 22 23 25 27 29 30 33 35 38 40 43 45 48 50 53 56 59 62 65 67 70 72 75 78 79 79 77 74 72 71 71 71 71 70 72 71 63 54 47 41 37 33 29 23
11 14 17 20 21 22 24 26 28 30 33 36 38 40 43 45 47 49 52 54 57 59 62 65 67 70 72 75 77 78 78 75 73 71 70 70 70 70 70 71 69 62 52 44 37 32 29 25 20
10 13 16 18 20 22 25 27 30 33 36 38 41 43 45 48 50 51 53 56 58 60 63 65 67 69 71 74 76 77 76 74 71 70 69 69 69 69 70 71 69 61 51 42 34 29 24 21 17
10 13 16 19 23 24 27 29 32 35 37 40 43 46 48 51 53 54 55 57 59 61 63 65 67 69 71 73 75 76 75 72 70 69 68 68 68 69 69 70 68 61 51 42 33 27 22 19 15
11 13 16 19 23 26 29 31 33 35 38 41 45 48 51 53 56 57 58 59 61 62 63 65 67 68 70 73 74 75 74 71 69 68 67 67 67 68 68 69 68 63 53 43 34 27 23 19 15
12 14 16 19 21 24 27 30 33 36 39 42 45 49 52 55 58 60 60 61 62 63 64 65 67 68 70 72 74 74 72 70 68 66 66 66 66 67 67 68 68 64 57 46 36 29 24 20 16

GEFSSGP_500_meanwind_048.txt.gz
Wind_Speed
8 8 8 7 6 5 4 2 2 3 4 4 5 5 6 7 8 7 8 8 9 11 12 14 16 18 20 21 23 25 26 28 30 32 33 35 36 37 38 40 41 42 43 44 44 45 45 45 45
11 10 10 9 8 7 5 4 4 4 4 4 4 5 5 6 8 8 9 11 13 14 16 18 19 21 23 25 26 28 30 32 33 35 36 38 39 41 42 43 44 46 47 48 49 49 50 50 51
12 11 10 9 8 8 6 5 4 4 4 4 4 5 6 7 9 11 12 14 16 18 19 21 22 24 25 27 29 30 32 34 36 37 39 41 42 44 45 47 48 49 50 52 53 53 54 55 55
11 10 10 9 8 7 6 5 4 4 3 4 5 6 9 11 12 14 16 17 19 20 21 23 24 26 27 29 31 33 34 36 38 40 42 43 45 47 49 51 52 54 55 56 57 58 59 60 60
10 9 9 8 7 6 5 3 3 3 4 5 7 10 12 14 16 17 19 20 21 22 23 24 26 27 29 31 33 36 37 39 41 43 45 46 49 51 53 55 57 59 61 62 64 65 66 66 67
8 7 7 7 5 4 3 4 4 5 7 9 11 13 16 17 18 19 20 21 22 23 24 26 28 30 32 35 37 38 40 42 43 46 48 50 53 56 58 60 63 65 67 69 71 73 74 74 75
5 5 5 4 3 4 5 7 9 10 12 14 15 16 18 19 20 20 21 21 23 24 26 28 30 33 35 37 39 40 42 44 46 49 52 55 57 60 63 66 69 72 74 77 79 81 83 83 83
3 4 4 5 6 8 10 12 13 14 16 17 18 18 19 20 20 20 21 22 24 26 29 31 33 35 38 39 41 42 44 47 50 53 56 59 62 65 68 72 75 78 81 84 87 90 92 93 94
6 7 9 10 11 12 14 15 17 17 18 18 19 18 19 19 20 21 22 24 26 29 31 34 36 38 39 41 42 45 48 51 53 56 59 63 66 69 72 76 79 83 87 91 95 98 100 102 104
10 11 12 14 14 15 16 17 17 17 17 17 18 18 18 19 21 22 24 26 29 31 33 35 37 39 40 42 45 48 51 53 56 59 63 66 69 72 75 79 83 88 92 97 101 105 108 111 112
13 13 14 15 15 15 15 15 16 15 16 16 17 18 19 21 22 24 27 29 31 33 35 37 39 41 43 45 48 51 53 56 59 62 65 69 72 75 78 82 87 92 97 101 106 109 111 112 113
13 13 14 14 14 14 14 14 14 14 15 15 16 18 20 22 24 26 29 31 32 34 36 38 40 43 45 48 51 53 56 59 62 65 68 70 73 77 81 86 92 97 101 105 107 108 107 105 104
12 12 12 13 13 13 13 13 13 14 15 16 17 19 20 23 25 28 30 31 33 35 37 40 42 45 48 50 53 55 58 61 64 67 70 73 76 79 85 90 95 100 103 104 103 99 94 91 89
12 12 12 12 12 12 12 13 13 14 14 16 18 19 21 23 26 28 30 32 34 37 40 42 45 47 50 52 55 57 60 62 66 69 72 74 78 83 88 94 98 100 100 97 91 86 83 82 82
12 11 11 11 11 12 12 12 13 14 15 16 17 19 21 24 26 29 31 34 37 39 42 44 47 49 51 54 56 58 61 64 67 70 73 76 81 86 92 96 98 97 93 87 83 81 80 80 81
11 10 10 11 11 12 12 11 13 14 14 16 18 20 22 25 27 30 33 36 38 41 43 45 48 50 53 55 57 60 62 65 68 71 75 79 84 90 94 96 95 91 85 81 80 79 79 79 79
10 10 9 10 12 12 12 11 12 14 15 17 19 21 24 26 29 31 34 37 39 42 44 46 49 51 54 56 58 60 63 66 69 73 76 81 86 91 94 93 90 84 80 79 78 76 78 77 74
10 11 11 10 11 12 13 13 13 15 17 18 21 23 25 27 29 32 35 37 40 43 45 47 50 52 54 56 58 61 64 67 70 74 78 83 88 91 92 90 85 80 78 78 76 75 76 74 71
10 10 11 11 11 12 13 14 14 16 18 20 22 24 26 28 30 32 35 38 40 43 46 48 50 52 54 56 59 62 64 68 71 75 80 85 89 91 90 85 80 78 77 76 74 75 73 69 67
9 9 9 9 11 12 13 14 15 16 18 20 22 24 27 29 31 34 37 39 42 44 47 49 52 54 55 57 60 62 65 68 72 76 81 85 89 89 86 81 78 77 76 75 74 74 71 66 63
7 8 8 9 9 11 13 13 15 16 18 20 23 25 28 31 33 36 38 41 44 47 49 52 54 56 57 59 61 63 66 69 73 77 82 86 87 86 83 79 76 75 75 74 73 72 69 64 57
7 6 7 8 9 9 11 12 14 16 19 21 24 26 29 32 35 38 40 43 46 49 52 54 57 59 60 61 63 65 67 70 74 78 82 85 85 84 81 77 75 74 74 74 73 71 68 62 55
7 6 6 7 8 9 11 12 14 16 19 21 24 27 30 33 36 39 42 45 48 51 54 57 59 62 63 64 65 66 69 72 75 78 82 84 83 81 78 75 74 73 73 73 72 69 65 58 52
8 7 7 8 8 9 11 13 15 17 19 22 24 27 30 33 37 40 43 47 50 53 56 59 62 64 66 66 67 68 70 73 75 79 81 82 81 79 76 74 73 72 72 72 70 68 62 55 49
11 10 9 10 10 11 12 14 16 18 21 23 26 29 31 35 38 41 44 48 51 54 58 61 64 66 68 69 69 70 71 73 76 78 81 81 79 77 74 72 72 71 71 70 70 67 61 53 46
13 13 13 13 14 14 14 15 17 19 22 25 27 30 33 36 39 43 46 49 52 55 59 62 65 68 70 71 72 72 73 74 76 78 80 80 78 76 73 71 71 70 70 70 69 66 60 52 45
16 16 16 16 16 17 17 18 19 21 23 26 29 32 34 37 40 44 47 50 54 57 60 63 66 69 71 73 74 73 73 75 76 78 79 79 77 75 72 70 70 69 69 69 68 65 59 52 45
20 19 18 19 20 21 21 22 24 25 27 29 31 33 36 39 42 45 48 51 54 57 61 64 67 70 72 74 75 75 74 75 76 78 78 78 76 74 71 69 69 69 68 68 67 64 59 52 45
23 22 22 23 24 25 26 25 27 28 30 32 34 36 39 41 44 47 49 52 55 58 61 64 67 70 72 75 76 76 75 75 76 77 77 77 75 73 71 69 68 68 67 67 66 64 58 52 45
26 25 25 26 27 28 30 28 29 30 32 33 36 38 41 43 46 48 50 53 56 59 62 65 67 70 73 75 77 77 76 75 75 76 77 76 74 72 70 68 68 67 67 65 64 62 58 51 45

GEFSSGP_500_meanwind_054.txt.gz
Wind_Speed
7 6 6 6 6 7 8 9 9 9 9 10 9 9 8 7 6 5 6 7 8 10 11 12 14 15 16 17 18 19 21 22 23 25 26 27 28 29 30 31 32 33 34 35 36 37 38 39 40
9 9 9 9 9 8 9 9 9 8 7 7 7 6 5 5 6 7 8 10 11 12 13 14 15 16 17 19 20 21 23 24 26 28 29 30 31 31 32 33 35 36 37 38 39 41 42 43 44
10 10 10 10 9 8 8 8 7 6 5 5 5 5 5 6 8 9 11 12 13 14 15 16 17 18 19 20 22 24 25 27 29 30 31 31 32 33 34 36 37 38 39 41 42 44 45 46 48
9 9 9 9 7 7 6 5 5 4 3 4 5 6 8 9 11 12 14 15 15 16 16 17 18 19 21 23 24 26 27 29 30 31 32 33 34 35 36 38 39 41 42 44 46 47 49 51 52
8 7 7 5 4 4 4 3 3 4 5 6 8 9 11 12 13 15 15 16 16 16 17 18 20 22 24 25 27 28 29 30 31 32 33 34 36 37 39 40 42 44 46 48 50 52 54 56 58
6 5 4 4 4 3 3 4 5 6 8 10 12 13 13 14 14 15 15 16 16 17 19 20 23 24 26 27 29 30 30 31 32 33 35 37 39 40 42 44 46 48 50 52 55 57 59 61 63
4 4 3 4 6 6 7 8 9 11 12 13 15 15 14 14 14 14 15 16 17 19 21 23 24 26 27 28 29 30 31 33 34 36 38 40 41 43 45 47 49 52 55 57 60 62 65 67 69
6 6 7 8 9 10 10 11 12 13 13 14 15 14 13 13 13 14 15 16 18 20 22 24 25 26 27 29 30 31 33 35 37 39 41 43 44 46 48 51 53 56 58 61 64 67 70 73 77
10 9 10 11 12 12 12 12 12 13 13 13 13 13 12 12 13 14 16 17 19 21 22 24 25 26 28 29 31 33 36 38 40 42 43 45 47 49 51 53 56 58 61 64 67 71 75 79 83
10 10 10 11 12 12 11 11 10 11 11 10 11 11 11 12 13 15 16 18 19 21 22 24 25 27 29 31 33 35 38 40 42 44 45 47 49 51 53 56 58 61 64 67 71 75 79 84 89
9 9 8 9 9 10 9 8 8 9 9 9 9 10 11 12 13 15 16 18 19 21 22 24 26 28 30 32 35 37 39 41 43 45 47 49 51 53 55 58 60 63 66 69 74 78 83 89 94
9 7 7 7 7 7 8 7 8 9 9 10 9 10 10 11 13 14 15 17 19 21 23 25 27 29 31 33 36 38 40 42 44 46 48 50 52 54 57 59 62 64 68 71 76 81 87 92 98
8 7 6 6 6 7 7 8 8 9 10 10 10 10 10 11 12 13 15 17 19 21 23 25 27 30 32 34 36 38 40 42 44 46 48 50 52 54 57 59 62 65 69 73 78 84 90 95 99
7 7 7 6 6 7 8 8 8 8 9 9 10 10 10 11 12 14 15 17 19 21 23 26 28 30 32 35 37 38 41 43 44 46 48 50 52 55 57 59 63 66 71 75 81 87 92 95 96
7 7 7 7 7 8 9 8 7 7 8 8 8 9 9 11 12 14 16 18 20 22 25 27 29 31 33 35 37 39 41 43 45 47 49 51 53 55 57 60 64 68 73 78 84 89 92 93 92
7 7 8 7 7 7 8 8 6 6 6 7 7 8 9 11 13 15 17 19 21 23 25 28 30 32 34 36 38 40 43 45 46 48 51 53 55 56 59 62 66 70 75 80 86 89 90 89 88
8 8 9 8 8 7 7 8 7 6 6 6 7 8 9 11 13 15 17 19 22 24 26 28 31 33 35 38 40 42 44 46 48 50 53 55 57 58 60 64 68 72 77 83 87 89 88 86 84
9 8 9 9 8 7 7 7 7 6 6 6 7 8 9 11 12 15 17 20 22 25 27 30 32 35 37 40 42 44 47 49 51 53 55 57 59 60 62 66 70 74 79 84 87 87 85 83 81
10 10 10 9 8 8 7 7 7 7 7 7 8 9 10 11 13 15 18 21 23 26 29 31 34 37 39 41 44 46 49 51 53 55 57 59 61 63 65 68 72 77 81 84 86 85 83 80 78
13 12 11 10 9 9 9 9 9 9 9 9 10 10 11 13 14 17 19 22 25 28 30 33 36 39 41 43 46 48 51 53 56 58 60 62 64 65 67 70 74 78 82 84 84 83 81 78 77
15 14 13 12 12 12 12 11 11 11 12 12 13 13 14 15 17 19 21 24 27 29 32 35 38 40 43 45 47 50 52 55 58 60 62 64 66 67 69 72 76 79 82 83 82 80 79 76 74
17 17 16 15 15 15 15 14 14 15 15 15 16 17 17 18 19 22 24 26 29 31 34 36 39 42 44 47 49 52 54 57 59 62 64 66 68 70 71 74 77 79 81 81 80 78 77 75 73
20 20 19 19 19 19 18 18 17 18 18 19 20 20 21 21 22 24 27 29 31 34 36 38 40 43 46 48 51 53 55 58 61 64 66 68 70 71 73 75 77 79 80 80 78 76 75 74 73
22 23 23 23 23 22 21 22 19 20 21 22 23 24 25 25 26 28 29 32 34 36 38 40 42 45 47 49 52 54 57 59 62 65 67 69 71 73 74 76 77 78 78 78 76 73 72 72 71
24 25 26 26 26 25 25 26 22 23 24 25 26 27 28 29 30 31 33 35 37 39 41 43 45 46 48 50 53 55 58 60 63 66 68 70 72 74 75 76 77 77 77 76 74 72 71 69 69
25 27 28 31 30 29 29 29 25 26 27 28 29 30 32 32 33 34 36 38 40 42 44 45 47 48 50 51 54 56 58 61 64 67 69 71 73 74 76 76 76 76 75 74 72 70 69 68 67
27 28 30 34 35 35 34 32 28 27 29 31 32 33 34 35 36 37 39 40 42 44 46 47 49 50 51 52 54 57 59 61 65 68 70 72 74 75 76 76 75 74 74 73 70 69 68 66 65
30 30 32 35 38 39 38 35 31 29 31 34 35 36 37 38 39 40 41 43 44 46 48 49 51 52 53 54 55 57 60 62 65 68 71 73 74 75 76 75 75 73 73 71 69 67 66 64 63
30 32 34 37 40 43 44 38 32 33 35 37 38 40 41 41 42 43 44 45 46 47 49 51 52 53 54 55 56 58 60 62 65 69 71 73 74 75 75 75 74 72 71 70 67 66 64 63 61
31 32 34 38 40 44 47 42 32 35 37 40 42 43 44 44 44 45 46 47 48 49 50 52 53 54 55 55 56 58 60 62 65 69 72 74 74 75 75 75 73 72 70 69 66 64 63 61 59

GEFSSGP_500_meanwind_060.txt.gz
Wind_Speed
9 8 6 5 5 5 5 6 5 5 5 4 4 4 3 2 2 2 2 4 5 7 8 9 10 11 13 14 15 17 18 19 19 20 21 22 22 22 22 23 23 24 25 25 26 27 27 28 28
10 9 8 7 7 7 6 6 6 5 4 3 2 1 1 2 3 4 5 7 8 9 10 11 13 14 15 16 18 19 20 21 22 22 23 23 24 24 24 24 25 25 26 27 28 28 29 30 31
9 8 7 6 6 5 5 4 4 3 2 1 1 2 4 5 6 7 8 9 10 11 12 13 14 16 17 19 20 21 22 22 23 24 24 24 25 25 26 26 27 28 28 29 30 31 32 33 34
7 6 5 5 4 3 2 1 1 0 2 3 4 5 7 8 9 10 10 11 12 13 14 15 16 17 19 21 22 22 23 23 24 25 25 26 26 27 28 29 29 30 31 32 33 34 35 36 37
5 4 3 3 2 2 2 3 4 5 6 7 8 9 10 11 11 11 12 12 13 14 15 16 18 19 21 21 22 23 23 24 24 25 26 27 28 29 29 30 31 33 34 35 35 36 38 39 40
4 5 5 5 5 5 6 7 8 9 10 10 11 11 12 12 12 12 13 13 14 15 16 17 19 20 21 21 22 23 23 24 24 25 26 27 28 29 30 32 33 34 35 36 38 39 40 42 43
6 7 8 8 9 9 10 11 12 12 12 13 12 12 13 13 13 13 13 14 15 16 17 18 19 20 20 21 22 22 23 24 25 26 27 28 29 30 31 32 34 35 36 37 39 41 42 44 45
9 10 10 11 11 12 13 13 13 14 14 13 12 12 13 14 13 13 14 15 16 17 18 18 19 19 20 21 21 22 23 24 25 26 27 28 29 30 31 33 34 35 37 38 40 42 43 45 47
11 11 12 12 12 13 14 14 14 14 14 13 12 12 13 14 14 14 15 15 16 17 17 18 18 19 20 21 22 23 24 25 26 27 28 29 30 31 32 34 35 36 38 40 41 43 45 47 49
12 12 12 13 13 13 13 14 13 13 13 13 12 12 13 13 14 14 15 15 15 16 17 17 18 19 20 21 22 23 24 26 27 28 29 30 32 33 34 35 36 38 39 41 42 44 46 48 50
12 12 13 13 13 12 12 13 13 13 13 13 13 12 12 13 14 14 14 14 15 15 16 17 18 19 20 22 23 24 26 27 29 30 31 32 33 35 36 37 38 40 41 43 44 46 48 50 52
12 12 13 13 13 13 13 13 13 13 13 13 13 13 13 13 13 13 14 14 14 14 15 17 18 19 20 22 23 25 27 29 30 32 33 34 36 37 38 39 41 42 43 45 47 49 50 52 54
13 13 13 13 14 13 13 12 12 13 12 13 13 13 13 13 13 13 13 13 13 14 15 17 18 19 21 23 24 26 28 30 32 33 35 36 38 39 40 41 42 44 45 47 49 51 53 55 56
14 13 13 14 14 14 13 12 12 13 12 12 12 12 13 13 12 12 12 13 13 14 15 17 18 20 21 23 25 27 29 31 33 35 37 38 39 41 42 43 44 45 47 49 51 53 55 57 59
15 15 14 15 15 15 14 12 12 12 12 12 12 12 12 12 12 12 13 13 14 15 16 18 19 21 22 24 26 28 31 33 35 36 38 39 41 42 43 45 46 47 49 51 53 55 57 59 61
16 16 16 16 16 16 15 13 13 12 12 12 12 12 12 12 13 13 14 15 16 17 18 20 21 22 24 26 27 30 32 34 36 38 40 41 42 44 45 46 47 49 51 53 55 57 59 61 64
17 17 17 18 18 17 16 14 16 13 14 14 13 13 13 14 14 15 16 17 18 20 21 22 24 25 26 28 29 31 34 36 38 40 42 44 45 45 47 48 49 51 53 55 57 59 61 64 66
19 19 19 20 20 19 17 16 17 16 15 15 15 15 16 16 17 17 19 20 21 22 24 25 26 27 29 30 32 34 36 39 41 43 44 46 47 48 49 50 51 53 55 57 59 62 64 66 68
21 21 21 22 23 22 20 18 19 20 18 18 18 18 18 19 20 20 22 23 24 25 27 28 29 31 32 33 35 36 39 41 43 45 47 48 49 50 51 52 53 55 57 59 61 64 66 69 71
23 23 23 24 25 25 23 21 22 22 21 21 20 20 21 22 22 23 24 26 27 29 30 31 32 34 35 36 38 39 41 43 45 47 49 50 51 52 53 54 56 57 59 61 63 66 69 71 74
24 25 25 26 27 27 27 23 23 24 23 23 23 23 23 24 25 26 27 28 30 31 33 34 35 37 38 40 41 42 44 46 48 49 51 52 54 55 56 57 58 60 62 64 66 68 71 73 77
26 27 28 28 29 29 29 28 19 25 24 24 24 25 25 26 28 29 30 31 32 34 35 37 38 40 41 43 44 45 47 48 50 52 53 54 56 57 58 59 61 62 64 66 68 71 73 76 78
29 29 30 31 31 30 30 32 23 25 25 26 27 27 27 29 30 31 32 33 35 37 38 40 41 42 44 45 47 48 49 51 53 54 55 56 58 59 60 61 63 64 65 68 70 73 75 77 79
30 31 33 32 32 32 31 33 28 25 27 27 28 29 29 31 32 33 35 36 38 40 41 43 44 45 47 48 49 50 52 53 55 55 56 58 59 61 62 63 64 65 67 69 72 74 77 78 79
31 32 35 36 34 33 33 33 29 27 28 29 30 31 32 33 35 36 38 40 41 43 44 46 47 48 49 50 51 52 54 55 56 57 58 59 60 62 63 64 66 67 69 71 73 75 77 79 79
31 33 35 39 39 36 35 34 29 28 29 30 31 33 35 37 39 40 42 44 45 46 47 49 50 51 52 52 53 54 55 57 58 58 59 60 62 64 64 66 67 68 70 72 74 75 77 78 78
33 33 35 39 41 40 37 35 31 28 27 29 31 34 37 40 42 44 46 47 48 49 50 51 52 53 54 54 55 56 57 58 59 60 61 62 63 65 66 67 68 70 71 72 74 75 76 77 77
34 35 36 38 42 44 41 37 33 30 29 30 33 36 39 42 45 47 49 51 52 52 53 53 54 55 55 56 57 58 58 60 61 62 62 64 65 66 67 68 69 70 71 72 74 75 75 75 75
35 35 37 40 42 45 47 41 35 35 34 35 36 39 42 45 48 50 52 53 54 55 55 56 56 56 57 58 58 59 60 61 62 63 64 65 66 67 68 69 70 70 71 72 73 74 74 74 73
36 37 38 40 43 45 49 47 38 38 39 40 42 43 45 47 49 51 52 54 54 55 56 56 57 57 58 58 59 60 60 61 63 63 65 66 66 67 68 69 69 69 70 71 72 73 72 72 71